Theta_e
292 292 292 292 292 292 293 293 293 294 294 295 295 295 295 295 294 297 297 298 298 300 300 299 299 300 300 301 302 302 301 301 304 305 306 303 303 303 303 304 304 304 305 306 307 308 307 302 301 305 300 296 295 295
292 293 292 292 293 293 293 293 293 293 293 294 294 294 295 295 295 297 296 297 298 299 300 300 300 301 301 301 301 302 301 301 302 302 303 301 303 304 303 305 309 307 307 308 306 304 300 301 301 299 297 295 293 292
292 293 293 293 293 293 293 293 293 293 293 294 294 294 295 295 295 296 296 297 298 299 299 299 300 301 303 303 303 303 301 300 301 300 302 304 302 302 305 307 310 309 305 302 301 299 300 301 299 298 297 295 293 292
293 293 293 293 293 293 293 293 293 293 293 294 294 294 295 295 295 295 296 297 298 299 300 300 300 299 299 302 304 304 303 301 300 301 302 302 305 306 306 307 305 304 303 301 300 299 298 299 299 298 295 293 292 291
294 294 294 294 294 294 293 293 294 294 294 294 294 295 295 295 295 296 297 297 299 299 301 301 300 301 301 302 303 303 302 301 302 303 303 303 303 304 303 303 304 303 302 299 300 298 296 298 297 296 296 294 292 292
295 295 295 295 294 294 294 294 294 295 295 295 295 295 295 295 295 297 299 297 298 300 300 302 300 301 301 302 301 301 301 302 303 302 302 302 303 304 302 301 303 302 301 299 298 297 293 296 294 294 293 292 292 292
294 294 294 294 294 294 294 293 293 293 294 294 295 295 295 296 296 298 299 299 298 300 300 301 301 301 302 302 301 301 302 303 302 301 301 303 303 302 299 303 302 299 296 295 295 295 295 294 294 292 292 292 292 290
296 296 296 297 297 297 298 300 301 305 303 300 299 300 298 297 298 298 299 299 299 300 301 302 302 302 301 301 301 300 301 301 300 300 300 302 301 301 301 301 299 296 295 295 295 294 294 294 293 292 291 291 287 285
296 296 296 298 298 299 300 299 300 304 306 304 302 301 301 299 300 300 299 300 300 299 300 300 302 302 300 299 299 299 300 301 299 300 300 300 299 302 301 300 298 297 297 296 295 293 293 293 293 291 288 287 285 285
295 296 296 297 299 300 299 299 299 300 301 302 301 299 296 300 300 301 301 302 301 302 300 299 297 299 300 300 300 300 299 300 301 300 298 300 301 301 301 299 297 296 296 295 293 294 293 292 291 288 287 286 285 285
295 295 295 297 299 299 299 298 299 300 301 301 298 300 301 301 301 299 299 300 299 302 300 298 300 301 300 301 301 299 299 298 302 301 300 300 302 298 297 297 296 296 297 295 294 292 292 291 288 287 286 286 284 283
295 295 296 296 297 298 298 299 300 301 300 299 300 299 299 299 297 299 299 298 298 303 298 301 300 301 300 299 299 299 300 298 301 297 298 299 297 297 296 296 295 294 294 293 293 291 289 288 288 286 285 284 283 281
294 295 296 297 298 299 299 300 300 300 299 298 296 295 297 295 297 296 297 299 301 297 299 301 301 299 298 296 295 296 298 298 296 294 298 298 295 296 295 294 293 294 294 292 290 290 289 287 287 285 282 282 282 280
294 295 295 296 297 298 299 298 297 297 298 296 295 295 296 296 300 301 300 300 297 300 301 300 297 299 294 296 292 297 296 298 297 296 301 295 296 294 292 291 290 288 290 291 289 288 285 284 282 283 283 282 281 278
294 294 295 296 296 296 296 296 296 297 296 296 296 296 295 296 297 297 295 298 299 299 299 297 296 297 295 297 296 297 299 298 299 297 297 292 294 292 291 290 288 284 284 281 282 281 280 280 280 279 280 281 280 277
293 295 295 296 296 295 295 296 297 297 294 295 296 295 296 300 301 300 300 300 295 294 295 297 298 296 297 296 298 295 299 298 296 298 294 291 293 291 288 288 285 282 281 280 280 280 279 279 279 278 279 279 278 277
292 293 294 295 296 296 296 296 296 294 294 295 297 295 295 298 300 299 298 298 293 296 296 297 297 299 297 298 300 300 297 298 296 295 292 292 291 289 287 286 284 282 280 279 279 279 279 279 279 277 275 276 276 277
293 294 294 294 295 296 296 296 292 294 297 296 296 296 296 296 298 298 294 293 295 295 295 298 297 298 294 299 299 296 294 293 293 293 292 290 289 288 287 286 284 282 280 280 280 279 278 278 278 277 276 276 276 276
293 294 294 294 295 295 292 294 294 295 295 295 295 294 295 295 294 294 293 292 296 296 295 296 297 300 300 297 295 293 292 291 292 290 289 288 288 287 287 286 284 282 281 280 280 279 279 279 279 278 277 277 277 277
293 293 294 294 294 292 293 292 294 294 294 295 295 296 295 294 291 294 292 293 295 295 296 298 298 296 295 294 292 292 291 290 290 289 288 287 286 286 286 285 284 282 281 281 281 280 280 280 280 279 278 278 278 278
292 292 293 294 293 293 292 291 292 293 294 295 295 295 295 293 293 292 293 293 294 297 297 295 293 292 292 292 291 290 289 290 289 287 288 286 286 285 285 285 283 282 281 281 280 281 280 281 281 280 279 279 280 280
290 293 293 293 290 291 290 291 291 291 294 294 293 295 293 291 289 291 292 293 295 294 293 289 290 292 293 292 291 291 290 289 289 287 287 286 285 285 285 283 282 281 282 282 282 281 281 282 282 281 281 279 280 279
290 291 292 289 286 286 289 290 291 292 291 293 292 292 291 289 291 291 293 293 293 292 290 291 291 290 289 289 290 289 289 287 287 286 286 286 286 286 285 284 283 282 282 283 283 282 282 281 281 281 279 277 277 276
291 289 286 286 287 285 285 287 291 292 290 292 292 291 291 289 290 292 293 290 289 290 291 291 290 289 289 288 286 288 288 288 287 287 287 286 286 285 285 285 284 284 284 284 283 283 281 280 280 278 277 276 275 273
285 285 283 282 284 285 282 283 286 289 287 289 288 288 288 290 289 292 291 288 288 289 289 290 291 290 289 287 286 287 288 288 287 287 287 286 285 285 285 285 286 285 285 284 281 281 280 279 279 278 276 274 273 272
283 282 284 284 284 287 287 286 286 286 286 285 287 292 288 286 289 291 291 287 288 286 287 287 289 289 288 287 286 284 286 288 287 284 284 285 285 284 281 280 281 282 283 284 282 280 279 279 278 277 276 275 273 272
283 282 288 289 290 290 285 286 290 287 287 286 289 286 284 287 288 289 287 286 286 286 286 286 288 287 286 283 283 285 286 286 286 283 283 284 284 284 284 282 281 282 283 282 282 281 279 277 276 275 273 272 272 271
285 286 284 283 283 286 281 280 282 287 285 290 288 289 286 287 288 286 285 285 285 285 285 286 286 285 284 283 283 284 282 282 282 282 282 281 281 282 282 282 282 282 281 281 280 279 278 277 275 273 271 270 270 269
283 284 281 278 278 282 286 285 289 287 287 288 287 284 284 286 284 284 284 284 284 284 284 283 283 283 282 282 282 282 282 282 280 274 271 270 273 275 279 280 281 280 280 279 278 277 276 275 273 271 269 267 266 265
282 283 279 275 279 285 288 285 284 286 285 283 283 283 285 283 282 283 283 283 284 285 284 283 283 283 282 281 280 280 280 281 281 280 273 271 274 275 277 278 278 278 277 276 275 272 272 271 269 267 266 264 264 263
286 280 278 277 285 287 286 286 286 285 286 287 284 286 285 282 280 278 278 279 281 283 284 283 283 283 282 282 280 279 278 281 281 282 281 279 276 276 276 276 275 275 275 274 272 271 270 268 266 265 264 263 262 262
286 281 280 283 284 286 286 287 287 287 286 286 286 286 285 284 279 272 275 277 279 280 281 282 283 281 283 283 282 281 281 280 280 280 279 277 275 275 274 273 272 272 271 270 269 268 267 266 265 265 264 263 262 261
286 286 286 287 286 287 284 285 285 286 283 279 279 279 280 278 277 272 275 275 276 276 276 278 279 280 280 281 280 279 278 277 277 277 277 276 275 273 272 270 270 269 269 268 267 266 266 265 264 263 262 262 261 260
Wind_Speed
37 37 37 37 37 37 37 36 37 39 40 42 43 44 44 44 42 35 31 27 25 2 2 13 17 8 2 6 5 3 3 2 2 4 3 4 4 5 5 9 4 8 6 6 4 3 9 2 1 5 1 6 4 5
37 38 39 38 37 37 37 37 38 40 41 43 44 45 46 47 45 38 19 30 26 7 3 20 24 23 21 21 5 2 3 5 5 3 4 4 3 3 4 7 2 6 5 4 3 4 2 2 2 1 4 5 4 8
41 41 40 41 41 40 38 38 39 41 43 44 45 46 49 47 46 45 26 21 26 9 5 14 10 19 19 28 22 6 3 6 5 5 3 1 3 3 2 4 3 4 3 3 4 3 6 5 6 5 6 10 11 10
46 45 44 44 44 44 43 43 43 44 46 48 49 49 49 49 49 45 39 35 33 3 4 2 17 28 34 20 25 28 10 5 5 3 2 2 2 1 3 2 3 4 4 6 2 4 5 6 5 10 11 12 13 11
43 48 50 47 44 43 44 46 47 47 50 52 52 52 52 51 50 46 39 38 38 14 3 2 3 10 13 12 26 25 17 5 3 3 2 3 3 2 2 2 2 2 5 4 5 10 4 8 10 12 11 11 11 11
25 22 25 35 40 40 40 43 47 50 53 54 56 56 54 53 51 40 10 34 42 29 1 3 2 3 3 7 11 9 6 3 3 2 4 3 2 3 3 2 2 2 2 3 4 11 5 12 10 11 10 13 12 11
19 17 16 20 27 32 38 43 50 58 63 63 64 61 60 57 59 30 7 19 48 33 4 2 2 2 10 5 1 3 4 3 3 3 3 3 3 4 2 3 5 5 7 10 14 16 9 10 6 13 14 14 16 15
17 14 13 10 14 15 12 5 26 20 50 74 67 55 64 67 47 43 18 27 48 16 2 2 3 4 5 2 2 2 3 3 3 3 2 3 1 2 2 2 9 8 10 11 10 3 9 11 15 12 15 15 10 11
17 16 16 17 18 11 16 25 39 39 33 55 70 63 59 49 15 25 35 49 36 5 4 3 3 3 4 2 3 1 2 1 1 2 2 3 1 3 5 11 11 12 7 9 8 9 12 13 13 11 9 11 11 10
34 32 31 23 18 22 18 21 25 39 65 79 67 13 5 15 44 49 28 7 6 6 4 4 3 3 6 3 0 3 2 3 2 4 2 2 3 3 8 11 10 9 8 12 12 11 14 14 11 9 9 10 14 13
31 32 32 29 27 20 14 16 18 24 35 23 5 9 48 59 17 3 3 4 5 3 2 3 7 10 0 4 3 2 3 2 2 3 4 2 3 4 7 10 9 7 12 13 10 9 10 11 11 9 8 14 17 19
27 31 31 22 19 20 27 31 26 30 17 20 24 23 11 3 3 6 3 3 3 5 3 9 9 10 3 3 3 1 2 2 4 2 3 3 3 5 10 11 7 7 8 8 17 13 15 16 17 15 15 16 18 20
26 29 30 30 28 28 31 38 40 40 27 9 5 5 4 4 7 5 4 1 3 2 6 9 9 4 2 3 3 3 3 4 1 2 3 3 3 6 8 7 7 9 13 13 12 18 20 18 21 22 19 22 25 24
27 28 28 30 27 25 26 21 16 12 13 5 5 7 4 3 3 2 2 4 3 11 13 9 3 3 2 3 2 4 3 2 1 1 4 2 6 6 6 6 8 6 9 10 12 17 19 21 20 21 25 26 26 25
31 27 25 27 24 20 16 15 19 16 7 5 4 5 4 2 2 2 0 6 8 9 8 4 3 3 2 3 1 3 3 3 5 4 2 3 8 9 8 7 9 8 8 7 15 15 18 20 21 21 23 24 24 25
19 28 27 22 18 15 16 21 21 7 4 4 6 3 2 4 7 6 10 10 2 3 3 3 4 4 2 3 3 5 5 5 3 2 3 6 8 7 7 8 7 11 11 14 17 19 21 21 21 23 21 21 24 25
25 14 17 17 22 18 11 7 8 6 4 5 3 2 2 3 4 3 3 2 1 3 2 3 3 4 3 2 2 2 3 1 3 4 4 6 9 9 8 12 12 14 14 16 19 20 20 21 23 21 16 21 21 21
18 20 16 9 8 15 15 10 4 5 6 4 2 3 2 3 4 3 1 2 3 2 2 3 3 3 2 3 3 2 2 2 4 4 5 6 8 12 14 14 14 15 16 17 19 20 20 20 15 13 17 19 16 17
21 19 15 17 12 6 4 7 6 4 4 2 2 2 2 2 3 3 2 3 2 3 3 3 4 2 1 1 2 3 3 2 3 3 4 7 13 15 15 16 17 14 17 17 16 14 15 15 15 17 19 18 15 17
17 18 19 16 9 5 5 4 5 4 2 2 2 3 2 1 2 2 4 4 3 2 4 3 2 2 1 2 2 4 3 5 5 5 3 4 9 14 14 14 11 14 16 15 13 15 14 12 14 17 19 18 18 19
12 17 15 12 9 12 4 3 4 2 2 2 2 3 2 3 3 4 4 3 4 3 2 2 1 2 6 7 10 10 7 8 3 2 3 4 7 12 12 12 14 14 12 13 12 14 15 14 16 16 18 18 15 15
9 10 6 11 5 5 4 7 3 2 3 1 2 2 3 2 3 3 2 5 3 2 2 2 1 2 4 4 4 8 11 10 9 13 13 15 4 6 8 12 13 12 15 16 16 17 15 13 18 21 20 22 21 21
7 7 7 8 6 5 2 4 4 3 3 1 2 3 3 2 2 3 3 2 2 3 4 4 6 12 8 11 13 12 13 16 9 9 12 10 12 12 13 13 16 17 13 13 16 15 17 20 23 25 26 23 22 21
7 5 4 3 4 1 3 4 2 2 3 3 3 2 2 2 3 3 3 2 1 2 3 3 8 5 7 11 4 5 9 13 12 11 13 13 8 8 13 13 15 15 17 16 18 19 21 23 22 24 23 23 22 23
6 7 5 5 4 5 4 4 5 4 3 2 3 3 2 1 2 2 2 0 1 2 3 4 4 2 3 2 5 7 10 14 10 6 9 13 14 13 11 10 13 16 19 20 19 20 20 21 20 19 20 21 21 20
6 4 4 1 3 3 1 2 2 1 2 3 1 1 2 2 3 2 2 1 1 2 2 2 2 5 3 4 3 4 5 13 15 9 6 12 16 18 11 7 7 7 17 19 24 22 20 19 19 19 18 19 20 20
5 3 2 2 0 2 4 2 2 4 3 2 0 1 3 3 2 1 1 3 1 2 4 5 5 7 7 8 9 10 13 14 14 12 9 11 13 16 19 19 13 11 13 16 18 20 22 22 21 20 19 17 17 15
2 3 3 5 4 2 3 3 3 2 1 3 2 3 3 1 1 1 1 4 6 6 7 9 10 12 13 11 12 16 17 18 18 18 17 15 13 13 13 12 12 14 14 14 15 16 19 21 20 19 17 15 14 13
3 3 3 5 5 4 4 2 2 1 2 1 2 1 2 2 3 2 3 3 3 7 9 10 12 14 12 9 8 12 19 21 19 5 5 2 4 8 15 16 17 17 16 16 15 15 15 15 15 16 15 14 13 12
3 1 3 3 3 2 3 2 2 2 2 1 2 2 2 2 4 4 3 3 4 2 9 10 12 12 11 11 14 10 8 9 9 10 6 4 10 17 17 17 18 18 19 19 20 19 16 16 17 16 17 16 14 13
2 3 3 3 2 2 2 2 0 0 1 1 2 2 2 2 3 6 7 6 4 4 8 10 10 11 12 13 12 10 4 6 8 10 9 12 20 19 17 16 16 17 16 16 18 19 18 18 17 18 16 15 12 10
1 0 2 2 1 1 0 1 1 1 1 1 1 2 2 2 1 4 9 8 2 4 2 4 8 6 14 15 14 11 4 7 8 12 17 20 21 18 17 17 17 17 18 18 18 17 16 18 18 16 15 13 10 8
2 2 2 2 1 1 1 1 1 1 2 1 1 2 2 2 3 2 2 7 7 6 8 11 12 11 11 13 14 13 12 14 15 17 17 17 20 20 19 20 19 18 18 18 17 16 16 16 16 15 13 11 10 8
Wind_Direction
239 236 233 231 229 229 227 226 224 221 217 211 207 209 210 214 216 204 216 215 210 196 250 211 242 252 351 198 197 209 62 330 116 187 205 205 195 213 233 257 182 182 183 208 183 224 264 77 47 186 162 29 63 96
237 235 231 229 228 227 226 226 223 222 220 214 212 210 210 209 213 205 214 210 212 227 252 230 246 241 236 237 153 217 225 165 170 145 199 228 220 205 221 268 25 184 182 185 185 215 117 59 100 77 141 125 93 100
238 235 231 229 226 224 224 223 224 221 219 216 212 210 207 208 209 208 210 200 199 225 251 252 250 257 257 250 244 172 245 213 185 187 163 240 216 183 217 239 150 225 132 136 145 192 157 125 92 78 104 113 117 119
238 235 232 229 227 226 225 226 226 224 220 217 214 210 208 206 206 209 207 203 193 186 238 271 242 243 258 274 226 201 196 216 149 112 36 220 197 141 217 222 170 201 127 133 96 134 136 186 138 126 115 117 116 123
232 233 230 227 223 223 229 230 226 226 223 219 217 212 206 205 210 210 208 205 197 193 205 183 279 242 231 211 194 191 189 173 126 104 135 232 274 92 249 93 224 193 161 167 219 180 146 172 159 143 140 140 136 136
202 203 209 216 220 226 229 232 233 233 230 224 218 212 209 204 200 192 197 205 202 207 40 186 230 222 228 182 178 136 132 121 84 145 223 223 219 135 195 202 259 72 66 151 185 140 129 133 139 128 141 144 139 132
138 152 173 197 212 222 235 242 244 240 232 225 219 208 201 199 193 196 191 181 188 190 165 223 203 207 168 151 56 54 72 103 143 206 235 185 209 140 141 197 172 122 111 106 113 113 120 153 155 144 146 139 139 141
134 144 159 198 200 186 213 299 350 201 209 207 200 191 186 182 180 191 211 172 171 171 168 184 194 144 193 177 107 180 173 158 219 204 132 172 96 109 237 150 133 132 126 133 159 63 153 135 136 142 144 149 127 119
122 130 129 118 142 168 104 39 33 89 137 158 162 155 157 166 171 175 185 160 159 154 169 190 187 145 180 154 120 120 92 120 320 164 224 112 206 213 204 161 162 161 166 159 122 124 138 147 150 152 146 133 130 133
87 86 88 95 101 101 73 50 45 73 90 116 121 116 117 153 133 130 147 151 154 200 198 176 164 163 138 118 118 107 203 172 154 237 105 144 237 282 173 171 156 163 150 134 134 155 160 163 156 156 150 144 142 141
79 78 74 80 87 88 62 37 57 75 99 96 68 91 113 119 117 114 137 158 159 190 173 168 164 131 86 124 134 167 173 160 174 242 141 236 251 198 148 141 151 158 146 158 162 152 154 155 151 148 139 142 140 143
78 79 81 78 67 64 73 82 99 95 88 95 108 109 130 105 87 108 169 139 127 146 143 140 132 124 71 92 106 217 141 68 217 139 105 249 244 157 143 147 147 144 129 131 144 142 143 145 147 137 140 139 141 149
82 69 70 65 67 75 88 89 93 105 108 100 68 62 61 347 63 107 148 69 126 133 140 136 123 123 96 57 59 91 111 209 56 63 220 227 168 138 137 125 125 131 133 126 126 140 140 133 143 143 134 152 156 154
71 70 64 59 66 79 95 90 76 64 53 55 48 40 60 29 80 109 132 130 174 130 137 130 88 106 100 63 151 108 239 93 97 205 229 201 156 133 113 123 118 125 126 120 124 130 132 137 137 151 157 158 156 153
64 68 67 53 62 80 80 56 56 61 55 58 45 51 25 324 358 9 62 94 104 122 114 92 58 85 78 107 189 114 126 222 209 218 195 166 139 127 124 116 124 121 123 120 131 127 132 138 139 145 156 158 160 156
56 59 43 45 54 68 73 65 49 51 57 58 48 54 338 64 80 87 106 111 68 91 82 72 107 86 196 152 130 202 173 216 220 160 108 123 126 117 119 118 113 117 117 124 132 138 141 143 144 149 155 160 162 162
54 27 29 49 61 64 56 63 44 45 56 43 30 358 22 47 70 66 55 27 330 69 99 97 91 186 117 121 132 150 188 115 121 99 105 123 131 124 122 114 118 123 123 131 135 141 143 150 148 143 142 162 164 168
45 35 33 28 56 58 48 38 71 63 56 39 48 5 12 25 77 59 14 0 71 98 89 171 128 77 112 134 176 139 96 70 74 91 102 112 114 124 125 122 123 129 134 146 147 144 144 144 148 152 154 159 160 167
43 41 42 43 55 71 54 25 47 78 47 358 349 17 35 32 16 343 338 1 73 89 90 44 60 53 77 85 94 100 122 94 113 74 83 103 123 121 119 123 130 135 150 154 150 150 157 161 162 160 162 164 167 173
57 54 53 53 58 68 57 17 42 75 47 12 7 16 58 11 293 16 21 24 46 64 50 46 34 20 62 31 100 120 108 123 124 116 102 96 117 125 129 128 132 146 151 153 149 152 154 159 171 175 174 174 178 184
40 31 40 51 51 59 79 39 42 93 89 58 8 45 358 1 22 21 20 352 57 35 74 64 58 23 60 80 100 115 132 138 143 134 139 129 125 124 123 124 146 154 155 157 156 169 173 180 180 180 177 183 195 201
19 31 45 36 66 54 62 25 108 125 80 157 38 61 33 28 353 9 326 40 53 9 25 106 92 93 91 77 85 149 165 149 123 117 118 128 132 134 143 156 154 160 171 174 179 181 179 183 184 182 170 157 156 154
26 35 47 38 64 49 288 359 60 25 83 13 48 51 13 16 321 341 75 56 53 357 21 77 80 91 83 85 99 101 117 119 116 122 131 128 141 154 158 168 178 173 173 189 193 174 159 166 164 158 153 152 150 146
38 53 50 56 63 85 9 15 33 43 39 49 65 54 15 304 325 63 74 61 14 357 35 61 106 90 69 65 52 60 109 119 115 124 143 134 138 149 171 175 183 193 186 176 168 160 161 165 163 157 157 154 155 155
62 347 67 357 351 58 42 15 6 46 52 48 70 23 310 21 64 67 87 79 33 24 16 58 117 59 107 99 70 68 138 132 121 114 131 148 132 133 140 155 167 174 174 159 152 157 158 162 162 161 160 162 161 159
66 315 77 354 327 82 154 57 50 128 88 52 28 297 25 70 67 61 66 61 61 25 13 21 105 109 75 70 108 71 96 140 140 103 91 157 160 152 139 127 117 136 178 181 167 154 154 159 160 161 162 169 170 162
44 330 332 349 295 65 37 24 41 77 65 102 285 37 60 62 74 104 112 22 85 59 46 39 129 122 131 124 115 120 144 153 148 135 134 149 169 173 165 151 138 157 170 170 168 170 165 159 156 156 152 157 165 171
154 54 69 307 24 27 103 45 61 53 11 331 55 44 118 140 128 51 72 104 112 103 86 92 113 126 125 129 138 140 131 130 128 125 117 109 124 145 153 149 144 152 160 168 170 170 168 164 160 156 153 150 155 169
31 328 71 8 6 36 41 72 77 27 319 330 105 64 117 55 21 82 76 108 150 145 120 106 110 116 117 128 142 154 147 146 136 99 94 111 84 108 138 143 148 153 155 154 157 159 159 156 154 151 145 142 138 141
321 25 74 42 74 61 41 37 63 4 9 91 98 73 82 79 51 66 90 59 22 253 193 168 157 151 149 151 146 139 173 194 210 167 155 177 173 153 152 148 147 147 148 149 143 140 147 144 140 137 135 134 137 137
348 32 43 59 85 56 36 9 43 135 11 26 27 72 111 125 88 41 26 357 348 46 155 162 179 187 178 167 166 145 122 181 208 213 215 172 165 161 158 155 153 152 153 151 147 146 145 142 142 140 140 139 141 145
341 357 111 43 319 169 137 355 340 349 179 134 220 109 134 129 115 341 13 6 33 38 334 251 185 159 201 205 196 193 205 188 175 172 166 159 158 158 157 154 154 153 148 145 144 144 147 145 144 146 146 147 147 148
6 24 38 12 34 156 1 328 294 270 32 58 1 11 62 131 186 223 48 39 63 90 113 132 140 144 154 163 163 157 155 152 153 154 152 151 150 151 151 150 150 149 148 143 142 143 145 145 144 146 148 151 151 150